Location: Aulagny
(45.1643°N, 4.3096°E)
Time: 14:51:37
(UTC+00:00)

CZ-2D R/B - Pass Details

Date: 21 October 2019
Orbit: 522 x 538 km, 97.4° (Epoch: 19 November)

Event Time Altitude Azimuth Distance (km) Brightness Sun altitude
Exits shadow 17:51:55 - 143° (SE) 2,415 6.3 -11.9°
Reaches altitude 10° 17:53:32 10° 135° (SE) 1,783 5.5 -12.2°
Maximum altitude 17:57:01 34° 70° (ENE) 902 3.9 -12.8°
Drops below altitude 10° 18:00:33 10° 5° (N) 1,804 5.9 -13.4°
Sets 18:02:48 0° 357° (N) 2,702 6.9 -13.8°
